Theta_e
328 328 329 330 331 332 334 335 336 337 337 336 335 335 331 333 332 329 332 334 334 335 335 336 336 336 331 333 326 323 321 320
327 328 328 329 330 331 332 334 333 334 334 332 327 329 329 328 329 329 328 328 331 332 331 331 328 330 329 327 324 322 320 320
325 326 327 326 326 325 326 327 328 329 329 328 330 332 329 329 327 327 326 326 324 326 327 327 327 324 325 323 322 321 320 321
321 321 321 322 324 326 325 326 326 325 324 323 325 326 326 325 325 324 323 322 321 321 322 323 323 323 322 322 321 321 320 319
319 321 321 322 323 320 319 321 323 324 323 323 321 321 324 322 322 320 321 319 319 318 318 318 320 323 323 321 321 319 317 319
319 321 322 322 320 317 318 320 318 320 317 316 322 321 321 319 319 318 318 318 317 316 315 316 318 319 323 320 317 315 315 314
318 321 321 318 318 318 319 318 316 318 315 317 316 315 316 321 323 322 320 321 320 316 317 317 318 317 316 316 316 317 312 312
320 319 320 319 320 319 318 318 316 314 313 314 313 313 313 320 320 318 318 315 316 313 311 311 316 316 316 316 315 317 317 312
318 320 320 319 318 319 318 316 314 313 311 310 310 308 311 316 314 316 315 316 316 312 311 310 311 311 312 313 314 315 312 313
320 318 321 319 320 320 317 319 314 314 313 313 312 311 310 313 314 315 316 316 313 311 310 311 311 310 309 311 314 310 311 313
315 315 315 315 317 318 319 315 313 313 312 311 310 310 308 308 311 310 312 315 314 311 311 310 311 311 309 309 310 309 308 311
313 313 313 315 314 315 315 313 312 313 315 309 307 305 304 307 309 312 312 314 315 313 313 314 311 311 310 310 314 310 309 310
313 312 317 319 316 313 314 311 310 310 310 309 307 306 310 311 311 311 311 312 313 314 313 315 313 310 310 311 310 311 309 311
312 316 316 314 311 311 311 308 307 308 309 310 310 305 306 306 308 308 308 308 309 310 312 310 310 310 310 311 311 311 311 311
312 310 309 306 305 306 307 306 305 307 308 310 307 305 304 303 302 303 303 304 305 307 308 309 310 312 313 312 309 309 309 308
308 305 303 304 307 307 307 307 306 307 308 305 305 304 303 303 302 303 303 303 306 307 308 312 314 314 313 310 309 309 310 309
302 303 304 304 304 306 306 306 305 306 305 305 303 303 302 302 303 304 302 303 310 309 309 311 312 312 310 308 306 306 307 308
303 303 302 302 302 303 304 303 303 305 307 304 303 302 303 305 305 302 305 304 309 309 307 307 309 310 309 306 304 305 305 307
301 300 301 301 301 303 303 305 305 306 303 304 305 305 305 304 302 305 306 306 308 309 307 307 306 307 307 307 306 308 307 308
300 300 300 300 302 304 304 303 305 304 303 302 305 306 304 306 304 305 307 305 305 307 306 306 306 306 306 306 309 309 308 308
Wind_Speed
16 14 16 13 11 13 14 11 10 7 6 4 3 3 5 6 9 5 4 4 3 3 4 6 1 6 6 6 7 3 5 5
15 14 13 12 14 13 14 13 12 12 6 5 4 4 4 3 4 7 6 4 5 3 2 4 3 1 5 3 2 4 5 5
13 12 12 11 12 10 9 9 9 7 8 5 5 5 4 5 6 6 5 4 2 2 3 3 3 1 2 1 3 3 3 5
12 11 9 9 8 6 6 7 6 6 6 6 4 4 4 4 3 3 4 3 3 3 3 1 1 1 1 2 3 4 4 4
10 7 6 5 7 9 8 8 7 6 4 3 1 1 2 0 2 3 4 3 4 4 3 1 1 2 4 4 4 2 2 4
6 5 4 6 6 7 8 7 9 8 7 5 4 3 2 2 3 2 3 3 3 3 3 4 4 3 2 2 3 3 3 4
3 4 3 5 6 7 6 7 7 8 8 6 5 7 4 4 2 2 4 4 3 3 4 5 5 3 3 2 1 2 3 4
4 4 5 5 6 6 5 4 6 6 5 6 5 5 7 4 3 3 4 2 4 2 2 4 3 3 4 4 4 3 4 4
5 5 5 5 4 7 3 4 3 4 4 3 3 4 4 4 3 4 5 5 4 4 4 5 4 3 4 5 3 4 3 3
5 3 1 6 7 5 3 4 4 5 4 3 3 2 2 1 2 4 6 6 5 4 4 5 5 3 5 4 4 3 3 3
5 5 6 6 5 1 4 7 7 5 6 4 4 5 5 4 6 3 5 8 6 6 5 5 4 4 3 2 3 3 3 2
5 5 5 4 2 9 7 7 6 5 6 5 6 3 3 3 3 4 5 6 7 7 6 5 5 3 5 2 3 2 2 1
4 2 4 3 0 5 4 5 4 6 7 6 5 4 3 3 3 6 5 5 5 5 6 7 5 3 4 4 4 4 1 1
5 5 3 7 9 6 5 8 8 8 7 6 7 7 6 5 5 4 5 5 4 5 6 5 5 4 4 3 4 5 4 3
4 6 9 8 8 8 7 8 7 6 7 6 7 7 7 6 5 4 5 4 3 6 5 5 3 3 5 5 5 4 3 2
5 10 7 6 11 12 11 8 6 7 6 7 6 7 4 3 4 4 4 3 4 5 4 2 4 5 5 5 4 4 5 4
10 6 8 9 7 8 6 6 6 7 7 5 6 6 7 5 7 4 4 5 5 6 6 5 6 6 6 4 4 5 5 5
8 9 8 8 7 4 7 7 5 5 5 5 5 6 6 5 5 6 6 6 6 6 6 5 5 5 5 5 4 3 5 4
8 7 8 6 6 6 6 7 6 5 6 5 7 6 6 5 5 5 5 5 5 5 6 5 5 6 6 6 5 5 6 5
7 9 7 7 7 6 6 6 5 4 4 6 5 6 7 7 6 6 6 6 6 6 5 6 5 6 7 7 6 5 5 6
Wind_Direction
72 67 61 57 55 44 43 42 47 58 55 43 42 46 38 39 17 36 89 70 32 46 32 74 345 46 22 13 22 21 17 13
55 60 59 54 53 47 42 36 34 32 37 34 57 60 57 64 50 34 36 33 40 4 52 80 46 196 133 122 282 7 4 340
58 59 58 57 58 57 51 43 42 36 40 23 42 35 35 54 50 25 39 52 69 71 65 71 92 19 19 83 336 304 310 302
67 61 61 56 50 57 72 62 62 48 38 33 35 39 45 48 72 73 63 39 25 38 51 93 130 182 240 272 281 288 296 299
72 66 56 39 49 49 36 38 24 40 48 355 41 37 96 132 100 54 49 39 34 6 345 328 274 258 223 214 225 254 318 297
74 59 64 49 66 68 54 41 20 10 2 7 327 320 250 217 170 126 59 360 27 352 318 299 286 280 295 339 323 326 301 302
117 128 133 105 94 75 78 54 32 18 2 357 2 2 358 237 172 146 189 214 259 254 282 291 273 285 281 243 262 252 296 291
169 188 135 123 105 100 81 72 54 35 16 356 3 348 358 3 32 33 51 40 28 6 316 316 351 280 281 237 233 234 217 246
207 208 139 135 102 88 100 87 59 46 26 360 2 360 358 17 40 2 9 347 342 328 327 326 318 329 314 312 232 225 275 236
125 108 269 34 87 92 92 63 48 29 11 352 7 350 321 267 306 322 5 341 314 308 319 317 327 340 347 1 359 317 264 202
74 78 66 42 78 112 65 45 47 24 10 7 356 349 349 359 350 348 333 339 323 323 342 339 342 344 328 325 313 321 284 295
83 42 45 61 3 63 74 68 53 27 17 14 24 15 346 310 311 336 330 343 2 8 345 343 339 333 326 290 273 264 242 254
74 160 188 226 157 94 78 80 52 23 40 53 39 11 329 325 339 348 335 332 22 352 350 340 340 332 311 343 343 331 300 138
175 209 43 34 45 56 58 39 32 28 26 26 29 12 345 350 346 344 334 335 352 349 339 335 335 342 352 4 12 19 17 50
89 43 71 63 49 36 20 46 15 360 29 18 25 16 10 9 346 335 343 333 330 323 329 335 349 3 28 39 30 32 7 24
74 65 81 57 48 44 32 13 12 347 13 39 19 11 352 0 343 339 336 329 317 325 331 6 42 42 26 31 12 19 19 30
109 87 65 66 63 54 46 7 345 354 32 42 17 358 350 359 344 356 341 332 327 357 357 22 20 26 33 44 29 23 27 30
82 66 51 50 44 39 31 356 353 53 36 23 9 349 354 350 354 349 341 330 349 353 358 15 20 16 23 25 6 356 37 21
73 68 63 64 36 15 23 3 11 39 11 358 9 355 356 0 349 345 341 337 346 357 360 351 22 23 12 17 3 16 42 26
68 65 63 36 42 38 1 345 25 3 18 27 2 4 360 356 355 345 347 355 355 356 358 25 47 42 31 15 16 20 37 48